KB6OQJ Weather Reports


Display with metric or nautical units.
time (UTC)temp
F
wind
direction
speed
MPH
gust
MPH
rain 1hr
in
rain 24hr
in
rain mn
in
humidity
%
barometer
mb
20260831153004 94 136 0.0 0.0 0.00 0.00 0.00 35 936.9
20260831152004 94 150 0.0 0.0 0.00 0.00 0.00 35 936.9
20260831151003 94 153 0.0 0.0 0.00 0.00 0.00 35 936.9
20260831150003 94 160 0.0 0.0 0.00 0.00 0.00 35 936.9
20260831145003 94 160 0.0 0.0 0.00 0.00 0.00 35 936.9
20260831141004 94 69 0.0 0.0 0.00 0.00 0.00 35 936.9
20260831140004 94 69 0.0 0.0 0.00 0.00 0.00 35 936.9
20260831134004 94 69 0.0 0.0 0.00 0.00 0.00 35 936.9
20260831121003 94 91 0.0 0.0 0.00 0.00 0.00 35 936.9
20260831120003 94 92 0.0 0.0 0.00 0.00 0.00 35 936.9
20260831115003 94 91 0.0 0.0 0.00 0.00 0.00 35 936.9
20260831114004 94 91 0.0 0.0 0.00 0.00 0.00 35 936.9
20260831113003 94 91 0.0 0.0 0.00 0.00 0.00 35 936.9
20260831111003 94 83 0.0 0.0 0.00 0.00 0.00 35 936.9
20260831110004 94 82 0.0 0.0 0.00 0.00 0.00 35 936.9
20260831105004 94 82 0.0 0.0 0.00 0.00 0.00 35 936.9
20260831103004 94 82 0.0 0.0 0.00 0.00 0.00 35 936.9
20260831102004 94 82 0.0 0.0 0.00 0.00 0.00 35 936.9
20260831101004 94 82 0.0 0.0 0.00 0.00 0.00 35 936.9
20260831095003 94 82 0.0 0.0 0.00 0.00 0.00 35 936.9
20260831093003 94 84 0.0 0.0 0.00 0.00 0.00 35 936.9
20260831092004 94 51 0.0 0.0 0.00 0.00 0.00 35 936.9
20260831091004 94 286 0.0 0.0 0.00 0.00 0.00 35 936.9
20260831090003 94 286 0.0 0.0 0.00 0.00 0.00 35 936.9
20260831082004 94 286 0.0 0.0 0.00 0.00 0.00 35 936.9
20260831081004 94 286 0.0 0.0 0.00 0.00 0.00 35 936.9
20260831080004 94 287 0.0 0.0 0.00 0.00 0.00 35 936.9
20260831075004 94 287 0.0 0.0 0.00 0.00 0.00 35 936.9
20260831074003 94 287 0.0 0.0 0.00 0.00 0.00 35 936.9
20260831073004 94 287 0.0 0.0 0.00 0.00 0.00 35 936.9
20260831072003 94 288 0.0 0.0 0.00 0.00 0.00 35 936.9
20260831071003 94 288 0.0 0.0 0.00 0.00 0.00 35 936.9
20260831064004 94 282 0.0 0.0 0.00 0.00 0.00 35 936.9
20260831063004 94 282 0.0 0.0 0.00 0.00 0.00 35 936.9
20260831062004 94 282 0.0 0.0 0.00 0.00 0.00 35 936.9
20260831061004 94 281 0.0 0.0 0.00 0.00 0.00 35 936.9
20260831060003 94 281 0.0 0.0 0.00 0.00 0.00 35 936.9
20260831054004 94 281 0.0 0.0 0.00 0.00 0.00 35 936.9
20260831053004 94 280 0.0 0.0 0.00 0.00 0.00 35 936.9
20260831052004 94 280 0.0 0.0 0.00 0.00 0.00 35 936.9
20260831051003 94 280 0.0 0.0 0.00 0.00 0.00 35 936.9
20260831050003 94 280 0.0 0.0 0.00 0.00 0.00 35 936.9
20260831044003 94 280 0.0 0.0 0.00 0.00 0.00 35 936.9
20260831043004 94 280 0.0 0.0 0.00 0.00 0.00 35 936.9
20260831040004 94 281 0.0 0.0 0.00 0.00 0.00 35 936.9
20260831035004 94 289 0.0 0.0 0.00 0.00 0.00 35 936.9
20260831033004 94 288 0.0 0.0 0.00 0.00 0.00 35 936.9
20260831032003 94 317 0.0 0.0 0.00 0.00 0.00 35 936.9
20260831031004 94 302 0.0 6.0 0.00 0.00 0.00 35 936.9
20260831030004 94 284 0.0 6.0 0.00 0.00 0.00 35 936.9
20260831025003 94 276 0.0 6.0 0.00 0.00 0.00 35 936.9
20260831024004 94 271 1.0 5.0 0.00 0.00 0.00 35 936.9
20260831023004 94 273 3.0 12.0 0.00 0.00 0.00 35 936.9
20260831022003 94 305 1.0 10.0 0.00 0.00 0.00 35 936.9
20260831021003 94 294 1.0 10.0 0.00 0.00 0.00 35 936.9
20260831020004 94 282 3.0 13.0 0.00 0.00 0.00 35 936.9
20260831015004 94 284 1.0 7.0 0.00 0.00 0.00 35 936.9
20260831014004 94 279 2.0 12.0 0.00 0.00 0.00 35 936.9
20260831013003 94 316 6.0 14.0 0.00 0.00 0.00 35 936.9
20260831012004 94 287 2.0 14.0 0.00 0.00 0.00 35 936.9
20260831011004 94 309 1.0 10.0 0.00 0.00 0.00 35 936.9
20260831010004 94 312 2.0 12.0 0.00 0.00 0.00 35 936.9
20260831005004 94 294 3.0 12.0 0.00 0.00 0.00 35 936.9
20260831004004 94 289 0.0 12.0 0.00 0.00 0.00 35 936.9
20260831003003 94 282 1.0 13.0 0.00 0.00 0.00 35 936.9
20260831002003 94 283 2.0 12.0 0.00 0.00 0.00 35 936.9
20260831001003 94 263 4.0 12.0 0.00 0.00 0.00 35 936.9
20260831000004 94 287 5.0 14.0 0.00 0.00 0.00 35 936.9
20260830235004 94 302 6.0 15.0 0.00 0.00 0.00 35 936.9
20260830234004 94 304 4.0 15.0 0.00 0.00 0.00 35 936.9
20260830233004 94 292 7.0 15.0 0.00 0.00 0.00 35 936.9
20260830232004 94 288 4.0 12.0 0.00 0.00 0.00 35 936.9
20260830231003 94 315 4.0 15.0 0.00 0.00 0.00 35 936.9
20260830230004 94 286 3.0 10.0 0.00 0.00 0.00 35 936.9
20260830225004 94 300 6.0 13.0 0.00 0.00 0.00 35 936.9
20260830224004 94 304 2.0 13.0 0.00 0.00 0.00 35 936.9
20260830223003 94 279 6.0 16.0 0.00 0.00 0.00 35 936.9
20260830222003 94 290 2.0 16.0 0.00 0.00 0.00 35 936.9
20260830221004 94 291 6.0 16.0 0.00 0.00 0.00 35 936.9
20260830220003 94 295 6.0 15.0 0.00 0.00 0.00 35 936.9
20260830215004 94 276 2.0 12.0 0.00 0.00 0.00 35 936.9
20260830214004 94 297 3.0 13.0 0.00 0.00 0.00 35 936.9
20260830213004 94 293 5.0 16.0 0.00 0.00 0.00 35 936.9
20260830210938 94 313 5.0 16.0 0.00 0.00 0.00 35 936.9
20260830210004 94 276 3.0 13.0 0.00 0.00 0.00 35 936.9
20260830205004 94 304 5.0 14.0 0.00 0.00 0.00 35 936.9
20260830204003 94 296 5.0 13.0 0.00 0.00 0.00 35 936.9
20260830203004 94 301 4.0 13.0 0.00 0.00 0.00 35 936.9
20260830202003 94 302 6.0 14.0 0.00 0.00 0.00 35 936.9
20260830201004 94 284 7.0 12.0 0.00 0.00 0.00 35 936.9
20260830200003 94 311 3.0 12.0 0.00 0.00 0.00 35 936.9
20260830195004 94 281 3.0 13.0 0.00 0.00 0.00 35 936.9
20260830193003 94 277 2.0 10.0 0.00 0.00 0.00 35 936.9
20260830192004 94 277 1.0 9.0 0.00 0.00 0.00 35 936.9
20260830191004 94 276 2.0 10.0 0.00 0.00 0.00 35 936.9